Wind_Speed
18 19 20 21 20 18 18 19 19 20 22 22 23 23 23 22 22 22 22 23 23 23 23 23 23 23 24 24 24 24 24 24 24 24 24 24 24 23 23 23 23 23 24
19 21 21 21 20 19 19 20 20 21 22 22 23 23 23 23 24 23 23 23 23 23 23 23 24 23 23 23 23 24 24 24 24 24 24 24 24 24 24 24 24 24 25
20 21 21 21 21 21 20 21 22 22 22 22 22 22 23 23 24 24 24 24 24 24 24 23 23 22 22 22 23 24 24 25 25 25 24 23 23 24 25 25 25 25 26
20 21 22 21 20 21 21 22 22 23 23 23 23 23 23 24 24 24 24 24 24 24 24 24 23 23 22 23 23 23 24 25 25 25 25 24 24 24 24 25 24 25 25
21 21 20 19 19 20 21 21 22 23 23 23 23 24 24 24 24 24 24 24 24 24 23 23 23 22 22 22 22 23 24 24 24 24 25 25 25 25 24 24 25 25 25
20 20 19 18 19 20 20 21 22 22 23 24 24 24 24 24 23 23 24 24 24 24 24 23 23 22 21 21 22 23 24 24 24 24 25 25 25 25 25 25 25 25 25
20 20 19 19 20 20 21 21 22 23 23 24 24 24 24 23 23 23 24 24 23 23 24 24 22 21 20 20 21 22 24 24 24 24 24 25 25 26 26 25 24 25 25
19 20 19 20 20 21 21 22 23 24 24 24 24 23 23 24 23 23 23 23 22 22 22 23 22 21 21 22 22 23 23 24 24 24 25 25 25 25 25 25 24 24 23
18 18 20 20 20 21 21 22 23 23 24 24 24 24 24 24 24 23 24 23 23 23 22 22 22 22 22 23 23 23 24 24 24 24 24 25 25 24 24 25 24 23 22
18 18 19 19 20 21 22 23 24 24 25 25 25 24 24 24 24 24 24 24 23 22 22 21 22 22 22 22 23 23 23 23 23 23 24 24 24 24 24 24 24 24 23
19 19 19 20 21 22 22 23 24 24 25 25 25 24 24 25 25 25 24 24 23 22 22 21 21 21 21 21 21 21 21 22 22 22 22 23 23 23 23 23 23 23 23
21 21 20 21 22 23 23 24 24 25 25 25 25 24 24 24 24 24 23 23 22 22 21 20 20 20 20 19 19 20 20 20 21 21 21 21 21 22 22 22 22 22 21
21 20 21 22 22 22 23 23 24 24 25 24 24 24 24 23 23 22 22 21 21 20 20 20 19 19 19 19 18 18 18 18 19 19 19 19 19 20 20 20 20 20 20
19 19 18 20 21 22 23 23 24 24 24 24 23 23 23 22 22 21 21 20 20 19 19 18 17 17 18 18 17 17 17 17 16 16 16 16 17 17 18 18 18 18 18
19 18 18 19 20 21 22 22 23 23 22 21 21 22 22 21 21 20 19 19 18 18 17 17 16 16 16 15 15 15 15 15 15 15 15 14 14 14 15 15 16 16 16
18 18 18 18 19 20 20 21 21 21 20 20 21 21 20 19 18 17 17 16 16 15 15 15 15 14 14 13 13 13 13 14 14 14 14 14 13 12 12 13 14 15 15
17 17 18 18 18 18 18 19 19 19 19 19 18 17 16 16 15 15 15 15 15 13 13 13 12 12 12 11 11 12 12 11 11 12 12 12 11 11 11 12 12 12 13
15 15 15 16 16 17 17 18 18 17 17 16 14 13 12 12 12 12 13 12 11 11 10 9 9 9 9 9 9 9 8 8 9 9 9 9 9 9 9 9 10 10 11
13 13 14 14 15 16 16 16 16 15 13 12 11 10 9 9 9 9 9 8 8 8 7 7 7 6 6 7 7 6 5 6 6 6 7 7 7 7 7 7 7 8 8
11 11 12 13 14 14 14 14 13 12 11 10 9 8 8 8 8 7 6 6 6 6 5 5 4 4 4 4 4 3 3 3 3 4 4 5 5 4 4 5 6 6 7
10 10 11 11 12 12 13 12 11 11 9 8 7 7 7 7 6 5 4 4 4 3 3 2 2 2 2 1 1 1 0 0 1 1 1 2 3 2 2 3 3 4 5
9 9 9 9 11 11 12 11 10 9 8 7 6 6 6 5 4 4 4 4 3 3 2 1 1 1 1 1 1 1 1 1 1 1 1 1 1 1 2 2 2 3 3
8 8 8 8 10 11 12 12 10 9 8 6 5 5 5 5 4 3 3 3 2 2 2 3 2 2 2 2 1 1 2 2 2 3 3 3 3 3 3 3 3 3 3
7 7 7 7 9 10 11 11 10 9 7 7 6 5 5 4 4 4 4 4 4 4 3 4 4 4 3 2 3 3 4 4 4 3 3 3 3 3 3 3 4 4 4
6 7 7 7 8 9 11 11 10 9 8 7 6 6 6 5 6 6 5 5 4 4 4 4 4 4 4 4 4 4 4 4 4 3 3 4 5 4 4 4 5 5 5
6 7 7 7 8 9 10 10 11 10 9 8 8 7 7 7 6 6 6 5 5 4 4 4 4 4 4 4 4 4 4 4 4 4 4 4 5 5 5 5 5 4 4
Wind_Direction
282 284 286 284 284 285 288 291 291 291 291 292 292 290 289 287 287 286 286 285 283 278 277 275 271 266 262 260 258 256 257 258 259 261 260 260 261 262 262 262 264 266 267
283 283 285 285 286 286 289 291 292 292 292 291 290 289 288 287 287 288 289 289 286 282 280 277 271 265 262 260 258 255 258 259 260 260 260 261 261 261 263 264 265 266 266
281 283 285 286 286 289 289 290 292 292 292 292 292 291 289 288 288 288 288 287 287 283 278 276 273 268 265 263 259 256 258 260 260 259 259 260 261 263 264 265 265 265 266
283 281 284 284 286 289 288 287 289 289 290 292 292 292 291 290 289 288 286 283 281 280 278 276 272 271 269 265 261 258 258 258 259 259 258 258 259 261 264 265 265 266 266
284 282 283 285 287 290 288 287 288 290 291 291 290 290 291 290 289 287 285 282 280 279 279 276 274 272 271 267 262 260 260 259 258 258 259 259 259 259 261 263 265 266 265
284 284 285 286 287 291 292 291 291 291 292 292 291 291 292 290 289 287 288 285 282 279 278 277 276 276 274 268 264 263 262 262 260 260 260 260 260 259 260 262 264 266 265
287 288 288 289 291 292 294 294 293 293 293 293 291 291 292 292 292 292 290 287 282 278 278 276 274 275 273 270 268 266 265 264 263 262 262 262 261 261 261 261 262 264 264
288 287 287 290 290 294 296 297 295 293 292 292 290 290 291 292 293 293 292 289 285 281 280 275 274 275 274 271 270 268 267 265 264 263 263 263 262 262 261 261 261 261 262
288 288 287 288 290 295 297 296 296 294 292 291 291 290 289 291 291 290 290 288 285 283 280 278 276 275 274 272 270 268 267 268 266 264 264 263 262 262 261 260 259 259 258
287 286 286 287 290 293 295 296 296 295 293 293 292 290 289 289 290 289 289 289 284 281 281 280 277 275 273 272 272 271 269 268 266 265 265 265 264 263 261 260 260 260 260
285 288 287 287 289 293 296 296 297 296 294 292 290 289 288 287 288 288 288 287 285 285 283 280 278 277 276 274 274 271 270 269 268 268 267 266 264 263 260 260 260 260 261
293 291 290 290 292 294 295 297 297 295 294 292 290 288 288 287 287 287 286 286 285 285 284 283 280 279 277 274 275 274 271 271 269 268 267 265 263 261 259 259 258 258 259
294 293 291 291 292 294 296 298 297 296 295 293 291 290 288 287 287 287 285 285 285 285 284 282 281 279 277 275 275 276 274 273 271 269 266 264 261 260 260 259 257 256 257
296 296 295 293 293 295 297 300 300 298 296 293 292 291 289 287 286 285 284 284 283 283 283 282 282 279 276 274 274 275 273 273 271 269 267 267 264 261 260 258 256 256 256
298 296 296 298 298 299 302 303 304 301 298 296 293 291 289 286 285 285 283 283 283 283 283 282 282 280 278 275 275 275 274 270 268 265 266 267 266 262 259 256 255 254 255
298 297 301 305 305 305 305 305 305 304 302 299 297 293 290 287 286 285 284 285 285 284 283 284 284 281 277 275 275 277 277 270 267 264 265 263 264 263 259 256 253 251 251
304 303 304 305 307 307 308 309 309 307 306 303 300 296 293 291 289 287 287 288 286 284 285 286 285 281 276 277 280 281 278 270 268 264 264 259 258 260 259 257 250 249 248
310 310 310 311 313 314 314 314 314 312 311 308 305 302 300 298 296 294 292 294 291 286 284 285 285 281 276 277 281 280 274 270 268 264 263 259 258 262 260 251 248 247 245
313 314 316 317 317 317 318 320 319 318 317 316 313 310 306 306 306 307 303 299 298 295 287 286 286 280 274 272 277 280 273 270 270 268 265 256 257 259 256 248 242 237 236
318 322 325 324 324 324 326 326 326 325 325 324 323 320 317 315 315 315 310 302 300 292 291 299 299 280 270 262 270 284 274 276 273 270 265 254 250 251 249 244 235 231 228
329 334 334 334 336 335 335 335 336 335 335 332 326 324 326 321 321 324 324 320 319 310 301 301 291 258 248 255 276 297 244 221 272 285 272 235 240 241 235 229 216 213 214
340 345 347 349 350 351 351 351 350 348 348 346 344 347 352 349 343 335 332 335 341 346 342 339 33 102 124 126 114 84 98 110 90 78 82 132 164 145 153 158 166 172 171
351 358 2 0 360 1 2 3 3 3 6 7 7 10 10 3 0 3 5 13 27 51 59 50 60 86 98 108 104 90 93 102 101 96 92 96 95 112 124 128 130 136 140
357 4 9 8 9 10 10 12 11 14 20 24 21 19 18 18 25 32 43 55 65 72 77 73 77 86 95 99 96 97 93 93 96 94 90 92 99 105 113 120 125 128 130
9 11 17 18 17 16 17 17 20 24 26 29 30 34 38 41 48 58 69 78 78 73 80 92 96 96 100 100 100 94 88 85 87 91 103 109 106 102 107 113 118 122 124
22 21 23 25 24 23 23 24 27 29 32 34 37 39 41 46 54 63 72 80 79 73 72 87 99 100 106 106 99 95 89 86 89 87 93 102 111 113 113 118 122 122 120
Height
5868 5867 5866 5865 5863 5862 5861 5860 5858 5856 5854 5852 5850 5848 5846 5844 5843 5841 5839 5838 5837 5836 5835 5835 5834 5834 5834 5835 5835 5836 5837 5837 5838 5838 5839 5839 5839 5840 5840 5841 5841 5841 5841
5864 5863 5862 5861 5860 5859 5857 5855 5854 5852 5850 5848 5845 5843 5841 5840 5838 5836 5834 5832 5831 5830 5829 5828 5828 5828 5828 5828 5829 5830 5831 5831 5831 5832 5832 5833 5834 5834 5834 5834 5834 5835 5834
5860 5860 5858 5857 5856 5854 5853 5851 5849 5847 5845 5842 5840 5838 5836 5834 5833 5831 5829 5827 5825 5824 5823 5823 5822 5821 5821 5822 5822 5823 5823 5824 5824 5825 5826 5827 5827 5827 5827 5827 5828 5828 5827
5856 5855 5854 5852 5851 5850 5848 5846 5844 5842 5840 5838 5835 5833 5831 5829 5827 5825 5823 5822 5820 5819 5818 5817 5816 5815 5815 5815 5815 5815 5816 5817 5817 5818 5819 5820 5820 5820 5820 5820 5820 5820 5820
5851 5850 5849 5848 5847 5845 5843 5841 5839 5836 5834 5832 5830 5828 5825 5823 5821 5819 5817 5816 5814 5813 5811 5810 5809 5808 5808 5808 5808 5808 5809 5809 5810 5811 5811 5812 5813 5813 5814 5813 5813 5813 5813
5847 5846 5845 5843 5842 5840 5838 5835 5833 5831 5828 5826 5824 5822 5820 5818 5815 5813 5811 5809 5808 5806 5805 5804 5803 5802 5801 5801 5801 5801 5802 5802 5803 5803 5804 5804 5805 5805 5806 5806 5806 5806 5806
5841 5841 5840 5838 5836 5834 5832 5830 5827 5825 5822 5820 5818 5816 5814 5811 5809 5807 5805 5803 5801 5800 5799 5797 5796 5795 5795 5795 5794 5795 5795 5795 5796 5796 5796 5796 5797 5797 5798 5798 5799 5799 5799
5835 5835 5834 5832 5831 5829 5826 5824 5821 5819 5817 5814 5812 5810 5808 5805 5803 5801 5799 5797 5795 5793 5792 5791 5790 5789 5789 5788 5788 5788 5788 5788 5788 5788 5788 5789 5789 5790 5790 5791 5791 5791 5792
5830 5829 5828 5826 5825 5823 5820 5818 5815 5813 5811 5808 5806 5803 5801 5799 5797 5795 5793 5790 5788 5787 5786 5784 5783 5783 5782 5782 5781 5781 5781 5781 5781 5781 5781 5781 5782 5782 5783 5783 5784 5785 5785
5825 5823 5821 5820 5819 5817 5814 5812 5809 5807 5804 5802 5799 5797 5794 5793 5791 5789 5787 5784 5782 5780 5779 5778 5777 5776 5775 5775 5774 5774 5773 5773 5773 5773 5773 5774 5774 5774 5775 5776 5776 5777 5778
5820 5819 5816 5815 5813 5810 5808 5806 5803 5800 5798 5795 5792 5790 5788 5786 5784 5782 5780 5778 5776 5774 5773 5771 5770 5769 5768 5768 5767 5767 5766 5766 5766 5766 5766 5766 5767 5767 5768 5768 5769 5770 5771
5815 5813 5811 5809 5807 5805 5802 5800 5796 5794 5791 5788 5785 5783 5781 5779 5777 5775 5773 5771 5770 5768 5766 5765 5764 5763 5762 5761 5761 5760 5760 5759 5759 5759 5759 5759 5759 5760 5761 5761 5762 5763 5764
5809 5808 5806 5804 5802 5799 5797 5793 5790 5787 5784 5781 5778 5776 5773 5772 5770 5768 5766 5765 5763 5762 5760 5759 5758 5757 5756 5755 5755 5754 5754 5753 5753 5752 5752 5753 5753 5753 5754 5755 5756 5757 5757
5804 5802 5800 5798 5796 5793 5791 5787 5784 5780 5777 5774 5771 5769 5766 5764 5763 5761 5760 5759 5757 5756 5755 5753 5752 5751 5750 5750 5749 5748 5748 5747 5747 5747 5747 5747 5747 5747 5748 5749 5750 5751 5752
5799 5796 5795 5793 5790 5787 5784 5781 5777 5774 5770 5767 5765 5762 5760 5758 5756 5755 5754 5753 5751 5750 5749 5748 5747 5746 5745 5744 5743 5743 5742 5742 5742 5742 5742 5742 5742 5742 5742 5743 5744 5745 5746
5794 5792 5789 5787 5784 5781 5778 5775 5772 5768 5765 5762 5759 5756 5754 5752 5751 5749 5748 5747 5746 5745 5744 5743 5742 5741 5740 5739 5739 5738 5738 5737 5737 5737 5737 5737 5737 5737 5738 5738 5739 5740 5741
5789 5787 5785 5782 5780 5777 5773 5770 5766 5763 5759 5756 5753 5751 5749 5748 5746 5745 5743 5742 5741 5740 5739 5738 5737 5736 5736 5735 5735 5734 5733 5732 5732 5732 5732 5732 5733 5733 5733 5734 5734 5735 5736
5785 5783 5781 5778 5775 5772 5769 5765 5762 5758 5755 5752 5749 5747 5746 5744 5742 5741 5739 5738 5737 5736 5736 5735 5734 5733 5732 5732 5731 5731 5730 5729 5729 5729 5729 5729 5729 5730 5730 5730 5731 5732 5733
5782 5780 5777 5774 5771 5768 5765 5761 5758 5754 5751 5748 5746 5744 5743 5741 5739 5738 5737 5735 5734 5733 5733 5732 5731 5730 5730 5729 5729 5728 5728 5727 5727 5726 5726 5727 5727 5727 5727 5727 5728 5729 5730
5778 5776 5774 5771 5768 5765 5761 5758 5754 5751 5748 5746 5744 5742 5741 5739 5737 5736 5735 5733 5732 5732 5731 5730 5729 5729 5728 5728 5728 5727 5726 5726 5725 5725 5725 5725 5725 5725 5725 5726 5726 5727 5728
5776 5773 5771 5768 5765 5762 5759 5755 5752 5749 5746 5744 5742 5741 5739 5737 5736 5735 5734 5732 5731 5730 5730 5729 5728 5728 5728 5727 5727 5727 5726 5726 5725 5725 5724 5724 5724 5724 5724 5725 5725 5726 5726
5774 5771 5769 5766 5764 5761 5757 5754 5750 5748 5745 5743 5741 5740 5738 5736 5735 5734 5733 5732 5731 5730 5729 5728 5728 5728 5728 5728 5727 5727 5727 5726 5726 5725 5725 5724 5724 5724 5724 5725 5725 5725 5726
5772 5770 5768 5765 5763 5760 5757 5753 5750 5747 5745 5743 5741 5740 5738 5736 5735 5734 5733 5732 5731 5730 5730 5729 5729 5729 5729 5728 5728 5728 5727 5727 5726 5726 5726 5725 5725 5725 5725 5725 5726 5726 5726
5771 5769 5767 5765 5762 5760 5757 5754 5750 5748 5745 5743 5741 5740 5738 5737 5735 5734 5733 5732 5732 5731 5731 5730 5730 5730 5730 5729 5729 5729 5728 5728 5727 5727 5727 5727 5727 5726 5726 5727 5727 5727 5727
5771 5769 5767 5764 5762 5760 5757 5755 5752 5749 5746 5744 5743 5741 5739 5737 5736 5735 5734 5733 5733 5732 5732 5732 5731 5731 5731 5731 5730 5730 5729 5729 5728 5728 5728 5728 5728 5728 5728 5728 5728 5728 5729
5770 5768 5766 5764 5762 5761 5758 5756 5753 5750 5748 5746 5744 5742 5740 5739 5738 5737 5736 5735 5734 5734 5733 5733 5733 5733 5733 5732 5732 5731 5731 5730 5730 5730 5730 5730 5730 5730 5730 5730 5730 5730 5730